29.03.2024;11:00;14,29
29.03.2024;10:45;14,29
29.03.2024;10:30;14,29
29.03.2024;10:15;14,26
29.03.2024;10:00;14,29
29.03.2024;09:45;14,26
29.03.2024;09:30;14,29
29.03.2024;09:15;14,56
29.03.2024;09:00;14,29
29.03.2024;08:45;14,17
29.03.2024;08:30;14,05
29.03.2024;08:15;13,96
29.03.2024;08:00;13,86
29.03.2024;07:45;13,74
29.03.2024;07:30;13,68
29.03.2024;07:15;13,47
29.03.2024;07:00;13,26
29.03.2024;06:45;13,10
29.03.2024;06:30;13,01
29.03.2024;06:15;12,98
29.03.2024;06:00;12,98
29.03.2024;05:45;13,01
29.03.2024;05:30;13,04
29.03.2024;05:15;13,04
29.03.2024;05:00;13,04
29.03.2024;04:45;13,07
29.03.2024;04:30;13,07
29.03.2024;04:15;13,07
29.03.2024;04:00;13,10
29.03.2024;03:45;13,13
29.03.2024;03:30;13,13
29.03.2024;03:15;13,16
29.03.2024;03:00;13,20
29.03.2024;02:45;13,20
29.03.2024;02:30;13,23
29.03.2024;02:15;13,23
29.03.2024;02:00;13,26
29.03.2024;01:45;13,29
29.03.2024;01:30;13,29
29.03.2024;01:15;13,32
29.03.2024;01:00;13,35
29.03.2024;00:45;13,38
29.03.2024;00:30;13,38
29.03.2024;00:15;13,41
29.03.2024;00:00;13,44
28.03.2024;23:45;13,44
28.03.2024;23:30;13,47
28.03.2024;23:15;13,50
28.03.2024;23:00;13,53
28.03.2024;22:45;13,56
28.03.2024;22:30;13,56
28.03.2024;22:15;13,59
28.03.2024;22:00;13,62
28.03.2024;21:45;13,68
28.03.2024;21:30;13,68
28.03.2024;21:15;13,71
28.03.2024;21:00;13,74
28.03.2024;20:45;13,77
28.03.2024;20:30;13,80
28.03.2024;20:15;13,83
28.03.2024;20:00;13,86
28.03.2024;19:45;13,89
28.03.2024;19:30;13,93
28.03.2024;19:15;13,99
28.03.2024;19:00;14,05
28.03.2024;18:45;14,11
28.03.2024;18:30;14,14
28.03.2024;18:15;14,20
28.03.2024;18:00;14,29
28.03.2024;17:45;14,29
28.03.2024;17:30;14,29
28.03.2024;17:15;14,29
28.03.2024;17:00;14,29
28.03.2024;16:45;14,29
28.03.2024;16:30;14,29
28.03.2024;16:15;14,29
28.03.2024;16:00;14,32
28.03.2024;15:45;14,29
28.03.2024;15:30;14,29
28.03.2024;15:15;14,32
28.03.2024;15:00;14,29
28.03.2024;14:45;14,29
28.03.2024;14:30;14,29
28.03.2024;14:15;14,32
28.03.2024;14:00;14,32
28.03.2024;13:45;14,32
28.03.2024;13:30;14,29
28.03.2024;13:15;14,32
28.03.2024;13:00;14,32
28.03.2024;12:45;14,32
28.03.2024;12:30;14,32
28.03.2024;12:15;14,32
28.03.2024;12:00;14,32
28.03.2024;11:45;14,32
28.03.2024;11:30;14,35
28.03.2024;11:15;14,32
28.03.2024;11:00;14,32
28.03.2024;10:45;14,35
28.03.2024;10:30;14,32
28.03.2024;10:15;14,35
28.03.2024;10:00;14,35
28.03.2024;09:45;14,35
28.03.2024;09:30;14,32
28.03.2024;09:15;14,32
28.03.2024;09:00;14,32
28.03.2024;08:45;14,32
28.03.2024;08:30;14,35
28.03.2024;08:15;14,62
28.03.2024;08:00;13,80
28.03.2024;07:45;13,56
28.03.2024;07:30;13,35
28.03.2024;07:15;13,20
28.03.2024;07:00;13,13
28.03.2024;06:45;13,04
28.03.2024;06:30;12,98
28.03.2024;06:15;12,98
28.03.2024;06:00;12,98
28.03.2024;05:45;13,01
28.03.2024;05:30;13,01
28.03.2024;05:15;13,04
28.03.2024;05:00;13,04
28.03.2024;04:45;13,07
28.03.2024;04:30;13,07
28.03.2024;04:15;13,10
28.03.2024;04:00;13,10
28.03.2024;03:45;13,13
28.03.2024;03:30;13,13
28.03.2024;03:15;13,16
28.03.2024;03:00;13,20
28.03.2024;02:45;13,20
28.03.2024;02:30;13,20
28.03.2024;02:15;13,23
28.03.2024;02:00;13,26
28.03.2024;01:45;13,29
28.03.2024;01:30;13,29
28.03.2024;01:15;13,32
28.03.2024;01:00;13,35
28.03.2024;00:45;13,38
28.03.2024;00:30;13,38
28.03.2024;00:15;13,41
28.03.2024;00:00;13,44
27.03.2024;23:45;13,44
27.03.2024;23:30;13,47
27.03.2024;23:15;13,47
27.03.2024;23:00;13,53
27.03.2024;22:45;13,56
27.03.2024;22:30;13,56
27.03.2024;22:15;13,59
27.03.2024;22:00;13,62
27.03.2024;21:45;13,65
27.03.2024;21:30;13,65
27.03.2024;21:15;13,68
27.03.2024;21:00;13,71
27.03.2024;20:45;13,77
27.03.2024;20:30;13,77
27.03.2024;20:15;13,80
27.03.2024;20:00;13,83
27.03.2024;19:45;13,89
27.03.2024;19:30;13,89
27.03.2024;19:15;13,93
27.03.2024;19:00;13,99
27.03.2024;18:45;14,05
27.03.2024;18:30;14,08
27.03.2024;18:15;14,14
27.03.2024;18:00;14,20
27.03.2024;17:45;14,26
27.03.2024;17:30;14,32
27.03.2024;17:15;14,35
27.03.2024;17:00;14,35
27.03.2024;16:45;14,35
27.03.2024;16:30;14,38
27.03.2024;16:15;14,35
27.03.2024;16:00;14,38
27.03.2024;15:45;14,35
27.03.2024;15:30;14,35
27.03.2024;15:15;14,35
27.03.2024;15:00;14,38
27.03.2024;14:45;14,35
27.03.2024;14:30;14,35
27.03.2024;14:15;14,35
27.03.2024;14:00;14,35
27.03.2024;13:45;14,35
27.03.2024;13:30;14,38
27.03.2024;13:15;14,38
27.03.2024;13:00;14,35
27.03.2024;12:45;14,35
27.03.2024;12:30;14,41
27.03.2024;12:15;14,35
27.03.2024;12:00;14,38
27.03.2024;11:45;14,38
27.03.2024;11:30;14,35
27.03.2024;11:15;14,38
27.03.2024;11:00;14,35
27.03.2024;10:45;14,38
27.03.2024;10:30;14,41
27.03.2024;10:15;14,41
27.03.2024;10:00;14,41
27.03.2024;09:45;14,38
27.03.2024;09:30;14,35
27.03.2024;09:15;14,38
27.03.2024;09:00;14,41
27.03.2024;08:45;14,38
27.03.2024;08:30;14,62
27.03.2024;08:15;14,05
27.03.2024;08:00;13,86
27.03.2024;07:45;13,62
27.03.2024;07:30;13,41
27.03.2024;07:15;13,23
27.03.2024;07:00;13,13
27.03.2024;06:45;13,07
27.03.2024;06:30;13,01
27.03.2024;06:15;12,98
27.03.2024;06:00;13,01
27.03.2024;05:45;13,01
27.03.2024;05:30;13,04
27.03.2024;05:15;13,04
27.03.2024;05:00;13,07
27.03.2024;04:45;13,07
27.03.2024;04:30;13,10
27.03.2024;04:15;13,10
27.03.2024;04:00;13,13
27.03.2024;03:45;13,16
27.03.2024;03:30;13,16
27.03.2024;03:15;13,16
27.03.2024;03:00;13,20
27.03.2024;02:45;13,23
27.03.2024;02:30;13,23
27.03.2024;02:15;13,26
27.03.2024;02:00;13,29
27.03.2024;01:45;13,29
27.03.2024;01:30;13,32
27.03.2024;01:15;13,35
27.03.2024;01:00;13,38
27.03.2024;00:45;13,38
27.03.2024;00:30;13,41
27.03.2024;00:15;13,41
27.03.2024;00:00;13,47
26.03.2024;23:45;13,47
26.03.2024;23:30;13,50
26.03.2024;23:15;13,53
26.03.2024;23:00;13,56
26.03.2024;22:45;13,56
26.03.2024;22:30;13,59
26.03.2024;22:15;13,62
26.03.2024;22:00;13,65
26.03.2024;21:45;13,68
26.03.2024;21:30;13,71
26.03.2024;21:15;13,71
26.03.2024;21:00;13,77
26.03.2024;20:45;13,80
26.03.2024;20:30;13,80
26.03.2024;20:15;13,86
26.03.2024;20:00;13,89
26.03.2024;19:45;13,93
26.03.2024;19:30;13,96
26.03.2024;19:15;14,02
26.03.2024;19:00;14,05
26.03.2024;18:45;14,08
26.03.2024;18:30;14,14
26.03.2024;18:15;14,20
26.03.2024;18:00;14,29
26.03.2024;17:45;14,35
26.03.2024;17:30;14,35
26.03.2024;17:15;14,38
26.03.2024;17:00;14,35
26.03.2024;16:45;14,35
26.03.2024;16:30;14,38
26.03.2024;16:15;14,35
26.03.2024;16:00;14,35
26.03.2024;15:45;14,35
26.03.2024;15:30;14,35
26.03.2024;15:15;14,35
26.03.2024;15:00;14,35
26.03.2024;14:45;14,38
26.03.2024;14:30;14,38
26.03.2024;14:15;14,35
26.03.2024;14:00;14,38
26.03.2024;13:45;14,38
26.03.2024;13:30;14,35
26.03.2024;13:15;14,38
26.03.2024;13:00;14,41
26.03.2024;12:45;14,41
26.03.2024;12:30;14,38
26.03.2024;12:15;14,38
26.03.2024;12:00;14,38
26.03.2024;11:45;14,41
26.03.2024;11:30;14,38
26.03.2024;11:15;14,38
26.03.2024;11:00;14,38
26.03.2024;10:45;14,38
26.03.2024;10:30;14,38
26.03.2024;10:15;14,38
26.03.2024;10:00;14,38
26.03.2024;09:45;14,38
26.03.2024;09:30;14,38
26.03.2024;09:15;14,38
26.03.2024;09:00;14,38
26.03.2024;08:45;14,35
26.03.2024;08:30;14,38
26.03.2024;08:15;14,66
26.03.2024;08:00;13,89
26.03.2024;07:45;13,59
26.03.2024;07:30;13,38
26.03.2024;07:15;13,20
26.03.2024;07:00;13,10
26.03.2024;06:45;13,04
26.03.2024;06:30;12,98
26.03.2024;06:15;12,98
26.03.2024;06:00;12,98
26.03.2024;05:45;13,01
26.03.2024;05:30;13,04
26.03.2024;05:15;13,01
26.03.2024;05:00;13,04
26.03.2024;04:45;13,07
26.03.2024;04:30;13,07
26.03.2024;04:15;13,07
26.03.2024;04:00;13,10
26.03.2024;03:45;13,13
26.03.2024;03:30;13,16
26.03.2024;03:15;13,16
26.03.2024;03:00;13,20
26.03.2024;02:45;13,20
26.03.2024;02:30;13,23
26.03.2024;02:15;13,23
26.03.2024;02:00;13,26
26.03.2024;01:45;13,29
26.03.2024;01:30;13,29
26.03.2024;01:15;13,32
26.03.2024;01:00;13,35
26.03.2024;00:45;13,38
26.03.2024;00:30;13,41
26.03.2024;00:15;13,41
26.03.2024;00:00;13,44
25.03.2024;23:45;13,47
25.03.2024;23:30;13,47
25.03.2024;23:15;13,50
25.03.2024;23:00;13,53
25.03.2024;22:45;13,56
25.03.2024;22:30;13,59
25.03.2024;22:15;13,59
25.03.2024;22:00;13,65
25.03.2024;21:45;13,65
25.03.2024;21:30;13,68
25.03.2024;21:15;13,71
25.03.2024;21:00;13,74
25.03.2024;20:45;13,77
25.03.2024;20:30;13,80
25.03.2024;20:15;13,83
25.03.2024;20:00;13,86
25.03.2024;19:45;13,89
25.03.2024;19:30;13,93
25.03.2024;19:15;13,96
25.03.2024;19:00;14,02
25.03.2024;18:45;14,05
25.03.2024;18:30;14,11
25.03.2024;18:15;14,17
25.03.2024;18:00;14,20
25.03.2024;17:45;14,26
25.03.2024;17:30;14,32
25.03.2024;17:15;14,38
25.03.2024;17:00;14,38
25.03.2024;16:45;14,38
25.03.2024;16:30;14,35
25.03.2024;16:15;14,38
25.03.2024;16:00;14,38
25.03.2024;15:45;14,38
25.03.2024;15:30;14,38
25.03.2024;15:15;14,41
25.03.2024;15:00;14,35
25.03.2024;14:45;14,35
25.03.2024;14:30;14,35
25.03.2024;14:15;14,41
25.03.2024;14:00;14,38
25.03.2024;13:45;14,35
25.03.2024;13:30;14,38
25.03.2024;13:15;14,38
25.03.2024;13:00;14,35
25.03.2024;12:45;14,38
25.03.2024;12:30;14,35
25.03.2024;12:15;14,41
25.03.2024;12:00;14,41
25.03.2024;11:45;14,41
25.03.2024;11:30;14,38
25.03.2024;11:15;14,41
25.03.2024;11:00;14,38
25.03.2024;10:45;14,38
25.03.2024;10:30;14,35
25.03.2024;10:15;14,35
25.03.2024;10:00;14,35
25.03.2024;09:45;14,75
25.03.2024;09:30;14,41
25.03.2024;09:15;13,93
25.03.2024;09:00;13,71
25.03.2024;08:45;13,56
25.03.2024;08:30;13,41
25.03.2024;08:15;13,29
25.03.2024;08:00;13,20
25.03.2024;07:45;13,10
25.03.2024;07:30;13,07
25.03.2024;07:15;13,04
25.03.2024;07:00;13,01
25.03.2024;06:45;12,98
25.03.2024;06:30;12,95
25.03.2024;06:15;12,95
25.03.2024;06:00;12,95
25.03.2024;05:45;12,98
25.03.2024;05:30;12,95
25.03.2024;05:15;12,98
25.03.2024;05:00;13,01
25.03.2024;04:45;13,01
25.03.2024;04:30;13,04
25.03.2024;04:15;13,04
25.03.2024;04:00;13,07
25.03.2024;03:45;13,07
25.03.2024;03:30;13,07
25.03.2024;03:15;13,10
25.03.2024;03:00;13,13
25.03.2024;02:45;13,13
25.03.2024;02:30;13,16
25.03.2024;02:15;13,16
25.03.2024;02:00;13,20
25.03.2024;01:45;13,23
25.03.2024;01:30;13,23
25.03.2024;01:15;13,26
25.03.2024;01:00;13,29
25.03.2024;00:45;13,29
25.03.2024;00:30;13,32
25.03.2024;00:15;13,35
25.03.2024;00:00;13,38
24.03.2024;23:45;13,38
24.03.2024;23:30;13,41
24.03.2024;23:15;13,41
24.03.2024;23:00;13,44
24.03.2024;22:45;13,47
24.03.2024;22:30;13,50
24.03.2024;22:15;13,53
24.03.2024;22:00;13,56
24.03.2024;21:45;13,59
24.03.2024;21:30;13,62
24.03.2024;21:15;13,62
24.03.2024;21:00;13,65
24.03.2024;20:45;13,68
24.03.2024;20:30;13,71
24.03.2024;20:15;13,71
24.03.2024;20:00;13,77
24.03.2024;19:45;13,80
24.03.2024;19:30;13,83
24.03.2024;19:15;13,86
24.03.2024;19:00;13,89
24.03.2024;18:45;13,93
24.03.2024;18:30;13,96
24.03.2024;18:15;14,02
24.03.2024;18:00;14,05
24.03.2024;17:45;14,11
24.03.2024;17:30;14,14
24.03.2024;17:15;14,17
24.03.2024;17:00;14,26
24.03.2024;16:45;14,32
24.03.2024;16:30;14,35
24.03.2024;16:15;14,35
24.03.2024;16:00;14,38
24.03.2024;15:45;14,35
24.03.2024;15:30;14,35
24.03.2024;15:15;14,35
24.03.2024;15:00;14,35
24.03.2024;14:45;14,38
24.03.2024;14:30;14,38
24.03.2024;14:15;14,35
24.03.2024;14:00;14,38
24.03.2024;13:45;14,35
24.03.2024;13:30;14,35
24.03.2024;13:15;14,35
24.03.2024;13:00;14,32
24.03.2024;12:45;14,32
24.03.2024;12:30;14,35
24.03.2024;12:15;14,38
24.03.2024;12:00;14,32
24.03.2024;11:45;14,35
24.03.2024;11:30;14,35
24.03.2024;11:15;14,32
24.03.2024;11:00;15,02
24.03.2024;10:45;14,50
24.03.2024;10:30;14,11
24.03.2024;10:15;13,93
24.03.2024;10:00;13,80
24.03.2024;09:45;13,68
24.03.2024;09:30;13,59
24.03.2024;09:15;13,47
24.03.2024;09:00;13,44
24.03.2024;08:45;13,35
24.03.2024;08:30;13,29
24.03.2024;08:15;13,20
24.03.2024;08:00;13,13
24.03.2024;07:45;13,07
24.03.2024;07:30;13,04
24.03.2024;07:15;12,98
24.03.2024;07:00;12,98
24.03.2024;06:45;12,95
24.03.2024;06:30;12,95
24.03.2024;06:15;12,98
24.03.2024;06:00;12,98
24.03.2024;05:45;12,98
24.03.2024;05:30;13,01
24.03.2024;05:15;13,01
24.03.2024;05:00;13,04
24.03.2024;04:45;13,04
24.03.2024;04:30;13,07
24.03.2024;04:15;13,07
24.03.2024;04:00;13,10
24.03.2024;03:45;13,10
24.03.2024;03:30;13,13
24.03.2024;03:15;13,13
24.03.2024;03:00;13,16
24.03.2024;02:45;13,16
24.03.2024;02:30;13,20
24.03.2024;02:15;13,20
24.03.2024;02:00;13,23
24.03.2024;01:45;13,26
24.03.2024;01:30;13,29
24.03.2024;01:15;13,29
24.03.2024;01:00;13,32
24.03.2024;00:45;13,35
24.03.2024;00:30;13,38
24.03.2024;00:15;13,38
24.03.2024;00:00;13,44
23.03.2024;23:45;13,44
23.03.2024;23:30;13,44
23.03.2024;23:15;13,47
23.03.2024;23:00;13,53
23.03.2024;22:45;13,53
23.03.2024;22:30;13,56
23.03.2024;22:15;13,59
23.03.2024;22:00;13,62
23.03.2024;21:45;13,65
23.03.2024;21:30;13,68
23.03.2024;21:15;13,68
23.03.2024;21:00;13,71
23.03.2024;20:45;13,74
23.03.2024;20:30;13,77
23.03.2024;20:15;13,80
23.03.2024;20:00;13,86
23.03.2024;19:45;13,89
23.03.2024;19:30;13,89
23.03.2024;19:15;13,93
23.03.2024;19:00;14,02
23.03.2024;18:45;14,05
23.03.2024;18:30;14,08
23.03.2024;18:15;14,17
23.03.2024;18:00;14,26
23.03.2024;17:45;14,32
23.03.2024;17:30;14,32
23.03.2024;17:15;14,32
23.03.2024;17:00;14,32
23.03.2024;16:45;14,35
23.03.2024;16:30;14,32
23.03.2024;16:15;14,32
23.03.2024;16:00;14,35
23.03.2024;15:45;14,32
23.03.2024;15:30;14,32
23.03.2024;15:15;14,32
23.03.2024;15:00;14,35
23.03.2024;14:45;14,41
23.03.2024;14:30;14,32
23.03.2024;14:15;14,35
23.03.2024;14:00;14,35
23.03.2024;13:45;14,32
23.03.2024;13:30;14,32
23.03.2024;13:15;14,35
23.03.2024;13:00;14,35
23.03.2024;12:45;14,35
23.03.2024;12:30;14,35
23.03.2024;12:15;14,38
23.03.2024;12:00;14,35
23.03.2024;11:45;14,35
23.03.2024;11:30;14,38
23.03.2024;11:15;14,35
23.03.2024;11:00;14,35
23.03.2024;10:45;14,35
23.03.2024;10:30;14,35
23.03.2024;10:15;14,32
23.03.2024;10:00;14,84
23.03.2024;09:45;13,77
23.03.2024;09:30;13,53
23.03.2024;09:15;13,38
23.03.2024;09:00;13,32
23.03.2024;08:45;13,20
23.03.2024;08:30;13,07
23.03.2024;08:15;13,01
23.03.2024;08:00;12,98
23.03.2024;07:45;12,95
23.03.2024;07:30;12,95
23.03.2024;07:15;12,95
23.03.2024;07:00;12,95
23.03.2024;06:45;12,95
23.03.2024;06:30;12,95
23.03.2024;06:15;12,95
23.03.2024;06:00;12,95
23.03.2024;05:45;12,98
23.03.2024;05:30;12,98
23.03.2024;05:15;12,95
23.03.2024;05:00;13,01
23.03.2024;04:45;13,01
23.03.2024;04:30;13,04
23.03.2024;04:15;13,04
23.03.2024;04:00;13,04
23.03.2024;03:45;13,07
23.03.2024;03:30;13,07
23.03.2024;03:15;13,07
23.03.2024;03:00;13,10
23.03.2024;02:45;13,13
23.03.2024;02:30;13,16
23.03.2024;02:15;13,16
23.03.2024;02:00;13,20
23.03.2024;01:45;13,20
23.03.2024;01:30;13,20
23.03.2024;01:15;13,23
23.03.2024;01:00;13,26
23.03.2024;00:45;13,29
23.03.2024;00:30;13,32
23.03.2024;00:15;13,32
23.03.2024;00:00;13,35
22.03.2024;23:45;13,38
22.03.2024;23:30;13,38
22.03.2024;23:15;13,41
22.03.2024;23:00;13,44
22.03.2024;22:45;13,47
22.03.2024;22:30;13,47
22.03.2024;22:15;13,50
22.03.2024;22:00;13,53
22.03.2024;21:45;13,56
22.03.2024;21:30;13,59
22.03.2024;21:15;13,59
22.03.2024;21:00;13,62
22.03.2024;20:45;13,65
22.03.2024;20:30;13,68
22.03.2024;20:15;13,71
22.03.2024;20:00;13,74
22.03.2024;19:45;13,77
22.03.2024;19:30;13,80
22.03.2024;19:15;13,83
22.03.2024;19:00;13,86
22.03.2024;18:45;13,89
22.03.2024;18:30;13,93
22.03.2024;18:15;13,96
22.03.2024;18:00;14,02
22.03.2024;17:45;14,08
22.03.2024;17:30;14,11
22.03.2024;17:15;14,17
22.03.2024;17:00;14,20
22.03.2024;16:45;14,29
22.03.2024;16:30;14,35
22.03.2024;16:15;14,35
22.03.2024;16:00;14,35
22.03.2024;15:45;14,35
22.03.2024;15:30;14,35
22.03.2024;15:15;14,38
22.03.2024;15:00;14,35
22.03.2024;14:45;14,35
22.03.2024;14:30;14,32
22.03.2024;14:15;14,38
22.03.2024;14:00;14,35
22.03.2024;13:45;14,35
22.03.2024;13:30;14,35
22.03.2024;13:15;14,35
22.03.2024;13:00;14,32
22.03.2024;12:45;14,32
22.03.2024;12:30;14,35
22.03.2024;12:15;14,35
22.03.2024;12:00;14,35
22.03.2024;11:45;14,35
22.03.2024;11:30;14,35
22.03.2024;11:15;14,35
22.03.2024;11:00;14,35
22.03.2024;10:45;14,32
22.03.2024;10:30;15,05
22.03.2024;10:15;14,75
22.03.2024;10:00;14,90
22.03.2024;09:45;14,78
22.03.2024;09:30;14,23
22.03.2024;09:15;14,26
22.03.2024;09:00;13,89
22.03.2024;08:45;13,65
22.03.2024;08:30;13,44
22.03.2024;08:15;13,29
22.03.2024;08:00;13,16
22.03.2024;07:45;13,07
22.03.2024;07:30;12,98
22.03.2024;07:15;12,98
22.03.2024;07:00;12,95
22.03.2024;06:45;12,95
22.03.2024;06:30;12,98
22.03.2024;06:15;12,98
22.03.2024;06:00;13,01
22.03.2024;05:45;13,01
22.03.2024;05:30;13,01
22.03.2024;05:15;13,04
22.03.2024;05:00;13,04
22.03.2024;04:45;13,07
22.03.2024;04:30;13,07
22.03.2024;04:15;13,07
22.03.2024;04:00;13,10
22.03.2024;03:45;13,13
22.03.2024;03:30;13,13
22.03.2024;03:15;13,16
22.03.2024;03:00;13,16
22.03.2024;02:45;13,20
22.03.2024;02:30;13,20
22.03.2024;02:15;13,23
22.03.2024;02:00;13,26
22.03.2024;01:45;13,29
22.03.2024;01:30;13,29
22.03.2024;01:15;13,32
22.03.2024;01:00;13,35
22.03.2024;00:45;13,38
22.03.2024;00:30;13,38
22.03.2024;00:15;13,41
22.03.2024;00:00;13,44
21.03.2024;23:45;13,44
21.03.2024;23:30;13,47
21.03.2024;23:15;13,50
21.03.2024;23:00;13,53
21.03.2024;22:45;13,56
21.03.2024;22:30;13,56
21.03.2024;22:15;13,59
21.03.2024;22:00;13,62
21.03.2024;21:45;13,65
21.03.2024;21:30;13,65
21.03.2024;21:15;13,68
21.03.2024;21:00;13,71
21.03.2024;20:45;13,77
21.03.2024;20:30;13,80
21.03.2024;20:15;13,80
21.03.2024;20:00;13,86
21.03.2024;19:45;13,89
21.03.2024;19:30;13,93
21.03.2024;19:15;13,93
21.03.2024;19:00;14,02
21.03.2024;18:45;14,05
21.03.2024;18:30;14,11
21.03.2024;18:15;14,17
21.03.2024;18:00;14,26
21.03.2024;17:45;14,35
21.03.2024;17:30;14,35
21.03.2024;17:15;14,35
21.03.2024;17:00;14,38
21.03.2024;16:45;14,38
21.03.2024;16:30;14,35
21.03.2024;16:15;14,38
21.03.2024;16:00;14,35
21.03.2024;15:45;14,35
21.03.2024;15:30;14,38
21.03.2024;15:15;14,35
21.03.2024;15:00;14,35
21.03.2024;14:45;14,38
21.03.2024;14:30;14,38
21.03.2024;14:15;14,35
21.03.2024;14:00;14,38
21.03.2024;13:45;14,35
21.03.2024;13:30;14,38
21.03.2024;13:15;14,38
21.03.2024;13:00;14,38
21.03.2024;12:45;14,38
21.03.2024;12:30;14,38
21.03.2024;12:15;14,41
21.03.2024;12:00;14,38
21.03.2024;11:45;14,35
21.03.2024;11:30;14,38
21.03.2024;11:15;14,38
21.03.2024;11:00;14,38
21.03.2024;10:45;14,41
21.03.2024;10:30;14,38
21.03.2024;10:15;14,38
21.03.2024;10:00;14,35
21.03.2024;09:45;14,87
21.03.2024;09:30;13,74
21.03.2024;09:15;13,53
21.03.2024;09:00;13,44
21.03.2024;08:45;13,26
21.03.2024;08:30;13,10
21.03.2024;08:15;13,04
21.03.2024;08:00;13,04
21.03.2024;07:45;13,04
21.03.2024;07:30;12,98
21.03.2024;07:15;12,95
21.03.2024;07:00;12,95
21.03.2024;06:45;12,95
21.03.2024;06:30;12,95
21.03.2024;06:15;12,95
21.03.2024;06:00;12,98
21.03.2024;05:45;12,98
21.03.2024;05:30;12,98
21.03.2024;05:15;12,98
21.03.2024;05:00;13,01
21.03.2024;04:45;13,04
21.03.2024;04:30;13,04
21.03.2024;04:15;13,04
21.03.2024;04:00;13,07
21.03.2024;03:45;13,07
21.03.2024;03:30;13,10
21.03.2024;03:15;13,13
21.03.2024;03:00;13,13
21.03.2024;02:45;13,16
21.03.2024;02:30;13,20
21.03.2024;02:15;13,16
21.03.2024;02:00;13,23
21.03.2024;01:45;13,23
21.03.2024;01:30;13,26
21.03.2024;01:15;13,26
21.03.2024;01:00;13,29
21.03.2024;00:45;13,32
21.03.2024;00:30;13,32
21.03.2024;00:15;13,35
21.03.2024;00:00;13,38
20.03.2024;23:45;13,41
20.03.2024;23:30;13,41
20.03.2024;23:15;13,44
20.03.2024;23:00;13,47
20.03.2024;22:45;13,50
20.03.2024;22:30;13,53
20.03.2024;22:15;13,53
20.03.2024;22:00;13,56
20.03.2024;21:45;13,59
20.03.2024;21:30;13,62
20.03.2024;21:15;13,65
20.03.2024;21:00;13,65
20.03.2024;20:45;13,68
20.03.2024;20:30;13,71
20.03.2024;20:15;13,74
20.03.2024;20:00;13,77
20.03.2024;19:45;13,80
20.03.2024;19:30;13,83
20.03.2024;19:15;13,86
20.03.2024;19:00;13,89
20.03.2024;18:45;13,93
20.03.2024;18:30;13,96
20.03.2024;18:15;14,02
20.03.2024;18:00;14,08
20.03.2024;17:45;14,11
20.03.2024;17:30;14,17
20.03.2024;17:15;14,23
20.03.2024;17:00;14,29
20.03.2024;16:45;14,32
20.03.2024;16:30;14,38
20.03.2024;16:15;14,38
20.03.2024;16:00;14,38
20.03.2024;15:45;14,38
20.03.2024;15:30;14,41
20.03.2024;15:15;14,41
20.03.2024;15:00;14,38
20.03.2024;14:45;14,38
20.03.2024;14:30;14,38
20.03.2024;14:15;14,38
20.03.2024;14:00;14,38
20.03.2024;13:45;14,38
20.03.2024;13:30;14,35
20.03.2024;13:15;14,38
20.03.2024;13:00;14,41
20.03.2024;12:45;14,38
20.03.2024;12:30;14,38
20.03.2024;12:15;14,38
20.03.2024;12:00;14,38
20.03.2024;11:45;14,41
20.03.2024;11:30;14,38
20.03.2024;11:15;14,38
20.03.2024;11:00;14,38
20.03.2024;10:45;14,38
20.03.2024;10:30;14,38
20.03.2024;10:15;14,38
20.03.2024;10:00;14,38
20.03.2024;09:45;14,38
20.03.2024;09:30;14,38
20.03.2024;09:15;14,38
20.03.2024;09:00;14,44
20.03.2024;08:45;14,17
20.03.2024;08:30;14,05
20.03.2024;08:15;13,65
20.03.2024;08:00;13,44
20.03.2024;07:45;13,32
20.03.2024;07:30;13,26
20.03.2024;07:15;13,13
20.03.2024;07:00;13,04
20.03.2024;06:45;12,98
20.03.2024;06:30;12,98
20.03.2024;06:15;12,98
20.03.2024;06:00;13,01
20.03.2024;05:45;13,01
20.03.2024;05:30;13,04
20.03.2024;05:15;13,04
20.03.2024;05:00;13,07
20.03.2024;04:45;13,07
20.03.2024;04:30;13,07
20.03.2024;04:15;13,10
20.03.2024;04:00;13,13
20.03.2024;03:45;13,16
20.03.2024;03:30;13,16
20.03.2024;03:15;13,16
20.03.2024;03:00;13,20
20.03.2024;02:45;13,23
20.03.2024;02:30;13,23
20.03.2024;02:15;13,26
20.03.2024;02:00;13,29
20.03.2024;01:45;13,29
20.03.2024;01:30;13,32
20.03.2024;01:15;13,32
20.03.2024;01:00;13,38
20.03.2024;00:45;13,38
20.03.2024;00:30;13,41
20.03.2024;00:15;13,44
20.03.2024;00:00;13,44
19.03.2024;23:45;13,47
19.03.2024;23:30;13,50
19.03.2024;23:15;13,53
19.03.2024;23:00;13,53
19.03.2024;22:45;13,56
19.03.2024;22:30;13,59
19.03.2024;22:15;13,62
19.03.2024;22:00;13,65
19.03.2024;21:45;13,65
19.03.2024;21:30;13,68
19.03.2024;21:15;13,71
19.03.2024;21:00;13,74
19.03.2024;20:45;13,77
19.03.2024;20:30;13,80
19.03.2024;20:15;13,83
19.03.2024;20:00;13,86
19.03.2024;19:45;13,89
19.03.2024;19:30;13,93
19.03.2024;19:15;13,96
19.03.2024;19:00;14,02
19.03.2024;18:45;14,05
19.03.2024;18:30;14,11
19.03.2024;18:15;14,17
19.03.2024;18:00;14,23
19.03.2024;17:45;14,29
19.03.2024;17:30;14,41
19.03.2024;17:15;14,41
19.03.2024;17:00;14,38
19.03.2024;16:45;14,41
19.03.2024;16:30;14,41
19.03.2024;16:15;14,41
19.03.2024;16:00;14,41
19.03.2024;15:45;14,44
19.03.2024;15:30;14,38
19.03.2024;15:15;14,38
19.03.2024;15:00;14,38
19.03.2024;14:45;14,41
19.03.2024;14:30;14,41
19.03.2024;14:15;14,41
19.03.2024;14:00;14,41
19.03.2024;13:45;14,41
19.03.2024;13:30;14,41
19.03.2024;13:15;14,41
19.03.2024;13:00;14,44
19.03.2024;12:45;14,41
19.03.2024;12:30;14,41
19.03.2024;12:15;14,41
19.03.2024;12:00;14,41
19.03.2024;11:45;14,41
19.03.2024;11:30;14,41
19.03.2024;11:15;14,41
19.03.2024;11:00;14,41
19.03.2024;10:45;14,41
19.03.2024;10:30;14,41
19.03.2024;10:15;14,41
19.03.2024;10:00;14,41
19.03.2024;09:45;14,41
19.03.2024;09:30;14,41
19.03.2024;09:15;14,38
19.03.2024;09:00;14,41
19.03.2024;08:45;14,38
19.03.2024;08:30;14,41
19.03.2024;08:15;14,41
19.03.2024;08:00;14,38
19.03.2024;07:45;14,17
19.03.2024;07:30;13,89
19.03.2024;07:15;13,35
19.03.2024;07:00;13,10
19.03.2024;06:45;13,01
19.03.2024;06:30;12,98
19.03.2024;06:15;12,98
19.03.2024;06:00;13,01
19.03.2024;05:45;13,01
19.03.2024;05:30;13,04
19.03.2024;05:15;13,04
19.03.2024;05:00;13,04
19.03.2024;04:45;13,07
19.03.2024;04:30;13,07
19.03.2024;04:15;13,10
19.03.2024;04:00;13,13
19.03.2024;03:45;13,13
19.03.2024;03:30;13,16
19.03.2024;03:15;13,20
19.03.2024;03:00;13,20
19.03.2024;02:45;13,23
19.03.2024;02:30;13,23
19.03.2024;02:15;13,26
19.03.2024;02:00;13,29
19.03.2024;01:45;13,32
19.03.2024;01:30;13,32
19.03.2024;01:15;13,32